Find Starlink 3831

NORAD ID: 52332 Int'l Des: 2022-045 Owner: SPXS Country: US Constellation: starlink operational
LEOCIRCULAR

リアルタイム位置

3D地球を読み込み中...

Starlink 3831について

説明を読み込み中...

次回通過

Passes for default location (London). Set your location on the main map for personalized predictions.

高度履歴

Loading altitude history...

軌道要素

1 52332U 22045B 26119.00198007 .00000196 00000-0 30416-4 0 9996
2 52332 53.2186 343.2715 0001064 94.1304 265.9810 15.08841226223239
Epoch: Apr 29, 2026 • Age: 15 hours

現在のステータス

高度 543.5 km
速度 7.59 km/s
衛星直下点 -13.49°S, 84.76°E
打ち上げ日 Apr 29, 2022
運用期間 3.9 years
タイプ internet

技術仕様

分類 Payload
質量 297.00 kg
乾燥質量 275.00 kg
総質量 297.00 kg
長さ 0.20 m
直径 2.80 m
スパン 9.00 m
形状 Box + pan
製造者 SPXS
バスタイプ Starlink
フェーズステータス In Orbit
所有者/国 SPXS/US

Most Searched